Zurück zum Katalog

CZ-3C DEB

LostGTO
NORAD 40826·DEBRIS·🇨🇳 China

Gestartet Oct 31, 2010 von Xichang Satellite Launch Center

Loading…

TLE

VeraltetSource: Space-Track

Epoche: Aug 26, 2017, 20:27 UTC

1 40826U 10057AT  17238.85214310 -.00000054  00000-0 -12266-3 0  9999
2 40826  20.6324 126.6158 7165570 312.3975   6.1420  2.24790460 20985

Verfolge CZ-3C DEB in Echtzeit mit AllMySat

Download on the App Store